Location: *
(50.5492°N, 7.7469°E)
Time: 20:51:10
(UTC+00:00)

CENTAUR R/B - Visible Passes

Search period start: 20 January 2020 00:00
Search period end: 30 January 2020 00:00
Orbit: 773 x 1415 km, 63.4° (Epoch: 18 January)

Date Brightness Start Highest point End Pass type
(mag) Time Alt. Az. Time Alt. Az. Time Alt. Az.
20 Jan 5.5 00:55:52 12° NE 00:55:52 12° NE 00:56:19 10° NE visible
20 Jan 4.2 02:43:02 33° NNE 02:43:02 33° NNE 02:49:38 10° ENE visible
20 Jan 3.4 04:30:13 30° NNW 04:34:25 64° NE 04:42:59 10° ESE visible
20 Jan 3.5 06:17:37 10° NW 06:25:14 49° WSW 06:33:28 10° S visible
21 Jan 4.8 01:56:24 24° NE 01:56:24 24° NE 02:00:23 10° ENE visible
21 Jan 3.7 03:43:35 40° N 03:45:48 50° NNE 03:54:04 10° ESE visible
21 Jan 3.2 05:30:47 18° NW 05:37:04 69° SW 05:45:41 10° SSE visible
22 Jan 5.3 01:09:49 15° NE 01:09:49 15° NE 01:11:14 10° ENE visible
22 Jan 3.9 02:57:00 41° NNE 02:57:04 41° NNE 03:04:56 10° E visible
22 Jan 3.1 04:44:11 30° NW 04:48:45 88° NE 04:57:29 10° SE visible
22 Jan 4.0 06:32:09 10° NW 06:38:59 31° WSW 06:46:14 10° S visible
23 Jan 4.5 02:10:28 30° NE 02:10:28 30° NE 02:15:41 10° E visible
23 Jan 3.3 03:57:40 45° NNW 04:00:18 68° NE 04:08:55 10° ESE visible
23 Jan 3.6 05:44:51 16° NW 05:51:00 45° WSW 05:59:06 10° S visible
24 Jan 5.1 01:24:00 18° ENE 01:24:00 18° ENE 01:26:24 10° ENE visible
24 Jan 3.6 03:11:12 52° NNE 03:11:42 53° NNE 03:20:03 10° ESE visible
24 Jan 3.2 04:58:24 29° NW 05:02:52 64° SW 05:11:25 10° SSE visible
25 Jan 4.2 02:24:48 38° ENE 02:24:48 38° ENE 02:30:58 10° E visible
25 Jan 3.0 04:12:01 50° NW 04:14:35 86° SW 04:23:18 10° SE visible
25 Jan 4.1 05:59:13 14° WNW 06:04:42 28° WSW 06:11:41 10° SSW visible
26 Jan 4.9 01:38:30 22° ENE 01:38:30 22° ENE 01:41:43 10° E visible
26 Jan 3.2 03:25:42 71° NNE 03:26:09 72° NE 03:34:49 10° SE visible
26 Jan 3.6 05:12:56 27° WNW 05:16:45 41° WSW 05:24:42 10° S visible
27 Jan 5.5 00:52:17 11° ENE 00:52:17 11° ENE 00:52:27 10° ENE visible
27 Jan 3.9 02:39:31 47° ENE 02:39:31 47° ENE 02:46:01 10° ESE visible
27 Jan 3.2 04:26:44 49° WNW 04:28:39 59° WSW 04:37:08 10° SSE visible
27 Jan 4.5 06:13:57 11° WNW 06:18:09 16° WSW 06:22:55 10° SW visible
27 Jan 4.8 20:06:14 10° SSW 20:06:17 10° SSW 20:06:17 10° SSW visible
28 Jan 4.8 01:53:25 25° E 01:53:25 25° E 01:56:58 10° E visible
28 Jan 3.0 03:40:39 80° SSW 03:40:39 80° SSW 03:49:06 10° SE visible
28 Jan 4.1 05:27:53 22° W 05:30:25 26° WSW 05:37:05 10° SSW visible
28 Jan 3.9 19:18:26 10° SSW 19:20:42 24° S 19:20:42 24° S visible
29 Jan 5.5 01:07:27 11° E 01:07:27 11° E 01:07:46 10° E visible
29 Jan 3.8 02:54:42 48° ESE 02:54:42 48° ESE 03:00:42 10° SE visible
29 Jan 3.6 04:41:56 37° WSW 04:42:30 38° WSW 04:50:15 10° S visible
29 Jan 3.3 18:31:06 10° S 18:35:06 30° SE 18:35:06 30° SE visible
29 Jan 4.2 20:20:14 10° SW 20:22:22 24° WSW 20:22:22 24° WSW visible
